FW9349 Weather Reports


time (UTC)temp
F
wind
direction
speed
knots
gust
knots
rain 1hr
in
rain 24hr
in
rain mn
in
humidity
%
barometer
mb
20260506044546 53 160 2.6 7.0 0.00 0.23 0.00 95 1006.8
20260506043053 53 217 5.2 8.7 0.00 0.23 0.00 95 1006.7
20260506041605 53 200 5.2 8.7 0.00 0.23 0.00 95 1006.7
20260506040055 53 200 4.3 7.8 0.00 0.23 0.00 95 1006.7
20260506034551 53 189 5.2 9.6 0.00 0.23 0.00 95 1006.8
20260506033052 54 199 6.1 11.3 0.00 0.23 0.00 95 1006.7
20260506031547 54 207 6.1 10.4 0.00 0.23 0.00 95 1006.9
20260506030049 53 195 4.3 7.0 0.00 0.23 0.00 95 1007.1
20260506024549 54 209 3.5 7.8 0.00 0.23 0.00 95 1007.0
20260506023055 54 182 2.6 6.1 0.00 0.23 0.00 95 1007.0
20260506021547 54 198 3.5 8.7 0.00 0.23 0.00 95 1007.1
20260506020114 54 190 4.3 9.6 0.00 0.23 0.00 95 1007.0
20260506014550 54 177 5.2 11.3 0.00 0.23 0.00 95 1007.0
20260506013051 54 194 7.0 9.6 0.00 0.23 0.00 95 1007.2
20260506011552 54 158 3.5 8.7 0.00 0.23 0.00 95 1007.1
20260506010050 55 179 5.2 9.6 0.00 0.23 0.00 95 1007.4
20260506004546 55 190 6.1 11.3 0.00 0.23 0.00 95 1007.5
20260506003047 55 185 7.0 10.4 0.00 0.23 0.00 95 1007.5
20260506001602 55 152 6.1 10.4 0.00 0.23 0.00 95 1007.4
20260506000113 55 171 5.2 11.3 0.00 0.23 0.00 95 1007.5
20260505234552 55 194 5.2 9.6 0.00 0.23 0.00 95 1007.8
20260505233053 55 185 5.2 7.8 0.00 0.23 0.00 94 1007.8
20260505231556 56 202 5.2 8.7 0.00 0.23 0.00 94 1007.8
20260505230049 55 202 6.1 8.7 0.00 0.23 0.00 94 1007.8
20260505224552 55 182 4.3 8.7 0.00 0.23 0.00 94 1007.9
20260505223053 56 188 3.5 7.8 0.00 0.23 0.00 94 1007.9
20260505221557 56 167 5.2 9.6 0.01 0.23 0.00 94 1007.8
20260505220103 56 162 4.3 8.7 0.05 0.23 0.00 95 1007.8
20260505214551 56 149 5.2 8.7 0.10 0.23 0.23 94 1007.8
20260505213043 57 200 4.3 7.8 0.11 0.22 0.22 94 1008.0
20260505211621 57 153 4.3 7.8 0.10 0.22 0.22 94 1008.0
20260505210057 57 169 3.5 6.1 0.09 0.18 0.18 94 1008.1
20260505204602 57 188 1.7 3.5 0.04 0.13 0.13 93 1008.0
20260505203046 57 253 2.6 8.7 0.03 0.11 0.11 93 1007.9
20260505201545 58 242 0.0 3.5 0.03 0.11 0.11 94 1007.8
20260505200050 58 28 0.9 2.6 0.00 0.08 0.08 93 1007.7
20260505194549 58 0 0.0 0.0 0.00 0.08 0.08 93 1007.7
20260505193055 58 0 0.0 0.0 0.00 0.08 0.08 93 1007.5
20260505191546 58 0 0.0 0.0 0.00 0.08 0.08 92 1007.6
20260505190058 58 0 0.0 0.9 0.00 0.08 0.08 91 1007.4
20260505184545 59 0 0.0 0.0 0.00 0.08 0.08 92 1007.4
20260505183044 59 0 0.0 1.7 0.00 0.08 0.08 91 1007.5
20260505181624 59 0 0.0 0.0 0.00 0.08 0.08 90 1007.4
20260505174550 59 0 0.0 1.7 0.00 0.08 0.08 89 1007.5
20260505173051 59 0 0.0 1.7 0.00 0.08 0.08 89 1007.5
20260505171559 59 0 0.0 2.6 0.00 0.08 0.08 89 1007.6
20260505170052 59 21 0.9 2.6 0.00 0.08 0.08 90 1007.6
20260505164548 59 19 0.0 1.7 0.00 0.08 0.08 90 1007.7
20260505163049 59 9 0.0 0.9 0.00 0.08 0.08 91 1007.9
20260505161551 58 0 0.0 0.9 0.00 0.08 0.08 91 1007.9
20260505153050 58 0 0.9 2.6 0.00 0.08 0.08 91 1008.1
20260505151548 58 355 0.9 2.6 0.00 0.08 0.08 91 1008.2
20260505124551 65 274 1.7 6.1 0.00 0.00 0.00 70 1008.1
20260505123055 66 0 0.9 3.5 0.00 0.00 0.00 68 1008.1
20260505121550 66 211 0.9 4.3 0.00 0.00 0.00 68 1008.1
20260505120104 66 188 1.7 3.5 0.00 0.00 0.00 69 1008.2
20260505114544 66 0 0.0 2.6 0.00 0.00 0.00 68 1008.3
20260505113050 66 0 1.7 5.2 0.00 0.00 0.00 68 1008.3
20260505111547 65 0 0.9 3.5 0.00 0.00 0.00 69 1008.3
20260505110108 65 126 1.7 5.2 0.00 0.00 0.00 71 1008.5
20260505101551 65 157 1.7 5.2 0.00 0.00 0.00 69 1009.0
20260505100049 65 186 1.7 5.2 0.00 0.00 0.00 69 1009.0
20260505094550 65 261 0.9 4.3 0.00 0.00 0.00 70 1009.0
20260505093051 65 196 0.9 7.0 0.00 0.00 0.00 72 1009.1
20260505091553 64 199 0.9 4.3 0.00 0.00 0.00 73 1009.3
20260505090051 64 219 3.5 7.0 0.00 0.00 0.00 73 1009.3
20260505084600 63 184 1.7 7.8 0.00 0.00 0.00 74 1009.6
20260505083056 63 0 2.6 5.2 0.00 0.00 0.00 74 1009.6
20260505081544 63 196 0.0 3.5 0.00 0.00 0.00 75 1009.6
20260505080054 62 189 1.7 3.5 0.00 0.00 0.00 77 1009.6
20260505074550 61 209 0.9 3.5 0.00 0.00 0.00 79 1009.8
20260505073057 60 0 1.7 4.3 0.00 0.00 0.00 80 1009.9
20260505071545 59 177 2.6 5.2 0.00 0.00 0.00 80 1010.0
20260505070053 59 186 2.6 6.1 0.00 0.00 0.00 80 1010.1
20260505064603 59 155 0.9 3.5 0.00 0.00 0.00 81 1010.1
20260505063047 58 213 0.9 4.3 0.00 0.00 0.00 83 1010.2
20260505061547 57 261 0.9 2.6 0.00 0.00 0.00 87 1010.3
20260505060050 56 272 0.9 1.7 0.00 0.00 0.00 88 1010.3
20260505054552 55 273 0.9 2.6 0.00 0.00 0.00 87 1010.3
20260505053057 55 0 0.0 0.0 0.00 0.00 0.00 87 1010.2
20260505051549 55 0 0.0 0.0 0.00 0.00 0.00 87 1010.1